GFSNE_500_spd_105.txt.gz
Wind_Speed
40 41 38 34 34 34 33 33 32 32 32 27 28 33 35 38 40 42 41 43 44 46 46 45 48 51 53 53 54 54 55 54 54 57 59 62 62 62
38 33 30 29 31 32 34 35 33 33 31 30 32 36 40 41 42 44 44 47 46 46 48 49 53 56 58 56 53 53 54 54 56 60 63 65 66 66
20 20 25 32 34 32 32 32 33 36 40 34 38 41 41 44 44 45 45 48 50 51 53 55 59 55 59 57 55 57 59 61 64 67 70 70 68 70
24 27 26 30 32 32 33 36 37 39 41 41 42 43 42 44 43 46 49 51 52 56 59 57 53 58 59 64 65 63 64 67 71 73 73 74 73 75
25 28 30 33 34 33 35 39 40 39 42 44 46 45 45 45 45 47 51 46 48 52 49 55 58 58 59 61 64 69 73 79 80 79 80 81 80 80
29 31 32 34 36 38 40 40 42 43 44 46 47 48 49 49 49 52 50 50 54 55 57 59 60 62 64 67 72 77 81 81 82 84 85 84 85 86
33 35 37 37 37 39 39 41 42 43 45 47 47 47 49 52 52 54 55 56 60 59 62 64 69 71 74 77 81 84 86 87 87 87 86 86 87 88
35 36 37 37 37 38 40 42 43 45 47 48 48 51 52 51 50 55 63 64 66 68 71 80 80 81 82 83 84 84 84 83 86 90 91 92 93 94
34 35 35 35 37 38 40 42 44 45 48 49 54 59 60 55 62 64 65 68 75 76 80 83 83 82 84 83 83 86 87 90 93 95 98 99 100 102
30 30 31 33 34 36 39 42 47 49 53 50 55 57 55 62 64 63 69 79 83 81 84 81 78 78 78 85 89 92 96 98 99 102 103 105 108 110
34 37 37 39 41 42 45 46 50 51 55 67 69 65 62 69 73 73 77 80 82 84 79 77 71 77 84 90 93 96 97 99 102 105 108 111 114 117
39 40 44 46 48 51 52 53 52 60 68 66 73 76 79 75 81 81 79 79 73 69 71 78 85 88 90 89 91 97 100 103 105 109 113 118 122 124
46 47 48 51 56 53 51 57 71 71 71 75 77 85 82 81 71 76 71 68 68 74 80 84 87 87 90 93 95 101 105 109 112 116 120 123 124 122
48 50 54 67 66 59 54 62 68 80 86 83 76 73 71 74 69 66 65 71 75 80 83 85 88 92 95 99 102 105 111 116 119 121 119 113 107 104
60 49 63 64 70 71 64 69 75 76 85 69 62 67 60 60 65 68 72 75 77 79 85 90 93 96 101 106 110 113 119 117 115 109 101 95 89 83
59 61 55 63 67 72 68 67 68 71 69 69 61 57 61 67 69 71 72 76 81 86 90 92 96 102 107 114 118 119 116 107 95 89 86 76 73 70
61 52 63 62 59 67 70 65 60 61 60 59 59 63 66 69 69 72 76 82 85 88 91 96 102 108 113 116 112 110 96 85 81 76 68 58 54 44
57 55 60 62 68 64 59 59 58 57 57 59 63 65 67 70 73 78 81 84 88 92 96 101 105 107 105 101 95 93 78 66 63 56 49 39 29 19
61 63 64 60 57 53 50 52 54 56 61 63 65 67 69 73 77 81 83 87 92 97 102 105 105 100 93 84 77 76 56 50 39 35 26 16 15 17
64 61 52 46 49 50 50 52 56 60 62 64 66 69 72 76 80 82 85 90 93 96 100 99 93 88 80 70 58 50 40 28 25 20 22 23 21 25
47 43 45 45 47 49 51 54 57 59 62 65 69 73 78 80 82 85 89 91 94 95 89 83 79 73 63 50 40 29 23 17 17 25 22 23 21 18
41 43 44 46 49 51 53 56 59 62 65 68 71 76 78 81 84 87 90 90 86 82 78 74 68 59 45 32 17 15 19 19 18 18 18 20 19 16
41 43 46 48 50 54 58 60 62 65 68 72 75 77 80 82 83 84 82 80 75 72 69 62 56 42 29 11 7 12 16 16 15 15 16 16 15 14

GFSNE_500_spd_111.txt.gz
Wind_Speed
36 38 35 35 26 25 29 24 28 30 33 32 28 30 30 31 33 34 33 33 36 38 41 42 43 44 44 47 43 49 50 53 56 54 50 48 49 53
32 32 34 30 29 25 28 25 30 33 32 29 31 31 33 35 36 36 37 38 38 41 42 44 46 47 49 49 52 52 53 57 53 51 53 54 57 57
22 26 28 26 26 25 26 25 31 29 21 25 31 34 36 39 38 39 40 41 43 42 45 46 50 51 52 54 57 57 60 57 59 60 59 60 63 65
24 26 24 24 23 16 12 13 18 21 25 32 31 35 34 36 40 42 44 45 45 46 47 51 56 56 56 58 58 61 64 63 64 67 71 74 72 73
16 14 13 13 18 20 19 20 27 32 33 36 39 40 39 40 41 43 45 48 50 52 53 55 57 58 59 60 62 66 67 68 70 74 78 78 82 86
23 22 22 21 24 26 28 32 33 33 35 38 39 40 41 43 44 46 48 48 50 53 54 55 58 60 62 65 67 72 76 78 82 84 80 84 87 86
22 23 22 24 25 26 29 31 33 33 37 39 41 42 44 46 46 46 48 49 51 55 55 55 59 63 68 73 75 80 85 87 89 89 95 98 88 85
25 25 26 28 28 30 31 33 35 36 38 40 41 43 44 45 46 47 49 51 51 57 56 60 63 67 70 80 84 83 81 83 86 83 83 82 80 80
27 28 29 30 33 34 35 37 38 39 40 40 41 42 43 45 47 50 54 57 62 64 64 64 72 77 80 84 78 74 75 78 79 79 78 81 83 87
33 34 35 36 35 35 35 36 37 38 39 41 43 46 46 50 52 55 57 65 67 69 71 77 80 84 79 77 77 76 78 78 78 80 83 86 89 92
36 37 37 37 35 35 36 37 37 39 43 46 48 49 51 53 55 58 66 75 79 83 80 82 74 71 75 77 79 78 78 79 81 83 87 91 95 100
39 41 41 42 41 41 41 41 43 45 49 52 51 53 56 59 61 66 75 72 61 64 64 70 67 68 71 72 76 77 79 80 85 89 94 99 103 105
42 43 44 45 47 47 47 47 49 50 52 57 61 63 68 74 68 62 61 59 65 66 67 65 66 69 72 73 77 78 83 87 90 94 98 101 105 112
46 43 48 53 53 55 55 54 56 55 59 54 63 70 68 59 57 58 60 63 65 64 64 68 69 71 73 74 78 83 87 90 94 97 101 106 113 118
57 54 45 56 55 57 56 58 62 57 57 57 57 58 59 61 66 70 64 63 63 64 66 69 70 73 76 79 83 88 90 93 97 102 108 111 109 99
48 58 56 57 56 62 54 63 56 56 56 57 61 64 63 60 59 59 61 61 63 64 66 69 72 75 80 84 88 91 94 96 101 105 104 97 85 72
53 50 55 58 54 57 55 58 62 56 60 57 57 55 54 57 58 59 59 60 63 65 67 72 76 81 85 85 88 92 95 98 98 91 83 71 56 41
50 52 49 54 55 60 53 58 55 55 60 57 52 53 54 57 58 59 59 59 63 68 72 76 78 81 84 87 89 91 94 89 78 70 60 46 36 28
60 56 50 55 56 63 60 57 59 53 54 53 53 53 54 57 57 58 60 65 70 71 73 75 78 81 84 88 89 86 79 71 66 53 38 27 24 24
55 54 56 56 51 58 55 46 51 56 53 51 52 52 52 53 56 61 66 69 72 72 74 77 80 82 84 84 79 71 67 61 49 35 24 20 23 28
49 53 54 49 50 53 53 52 52 50 50 49 50 50 52 56 61 65 67 68 70 73 76 78 80 81 78 74 67 63 57 46 29 20 18 20 25 30
52 52 48 46 47 46 47 48 47 47 47 48 50 54 57 61 64 65 66 68 71 74 76 78 78 74 66 63 61 56 45 30 19 17 18 19 27 27
37 39 42 42 42 44 45 45 46 46 49 52 56 58 61 62 63 65 68 68 70 73 75 75 71 64 58 59 55 45 32 20 12 13 14 21 28 23

GFSNE_500_spd_114.txt.gz
Wind_Speed
48 48 42 38 41 45 44 43 37 28 31 29 30 33 32 31 28 26 25 28 31 32 34 35 36 39 41 41 43 46 48 47 49 51 53 55 55 60
41 40 36 32 38 39 42 29 24 26 29 32 31 35 31 31 33 33 31 34 33 34 36 37 39 42 44 46 47 49 51 54 55 56 56 56 59 62
36 26 20 32 39 45 40 30 28 25 28 33 35 32 32 34 34 37 36 39 40 39 39 40 43 45 47 48 50 53 58 60 59 59 59 62 62 63
28 28 36 32 29 31 33 30 26 28 23 26 23 26 32 30 33 34 38 40 42 43 43 46 47 48 50 54 55 57 60 61 62 62 64 67 69 73
29 27 29 25 22 24 25 22 22 22 22 23 31 31 33 36 37 41 44 43 44 46 48 50 51 52 55 57 59 61 62 61 64 66 69 74 72 80
25 30 27 25 22 23 22 25 26 25 27 31 33 33 37 39 41 42 44 47 48 49 50 52 52 53 54 58 60 62 64 68 68 71 73 79 80 76
25 30 30 29 29 27 28 29 30 31 33 34 35 37 40 42 44 46 48 49 49 50 51 51 52 54 57 63 67 67 70 73 74 81 86 87 82 80
27 28 27 29 29 29 30 29 29 31 33 35 38 41 43 45 46 47 48 49 50 50 52 55 58 60 64 70 73 77 79 78 78 74 74 75 78 84
25 26 27 29 29 29 29 31 34 37 38 41 42 43 44 45 46 47 48 51 53 55 58 59 60 64 72 77 67 65 67 71 72 74 76 79 82 84
28 29 31 31 33 34 36 38 40 40 41 42 43 43 44 44 47 50 54 56 58 60 62 67 69 75 80 75 71 69 71 73 75 76 79 81 82 83
31 32 34 35 37 37 38 40 40 41 42 43 44 46 47 49 52 56 58 61 67 70 74 75 69 65 65 69 73 71 71 73 76 78 80 80 84 87
33 35 35 36 37 39 39 40 41 43 46 47 49 51 52 54 57 60 57 64 72 77 62 62 64 69 72 70 70 71 72 75 77 78 82 85 89 94
36 38 39 41 42 43 43 44 45 48 51 54 56 57 58 60 63 67 71 69 62 58 65 68 69 65 65 68 71 72 74 76 78 83 88 90 92 95
42 44 46 46 48 49 48 46 47 47 49 53 57 56 59 64 68 63 62 62 65 69 65 63 62 64 67 68 70 73 76 80 83 86 89 92 95 100
44 46 51 53 50 48 51 52 55 61 57 55 59 63 65 69 61 60 61 61 59 59 61 62 64 66 67 68 71 75 79 81 84 88 90 96 99 101
47 48 47 49 52 46 50 55 62 57 60 65 70 68 62 58 56 59 61 57 59 61 62 63 65 65 67 71 77 77 79 83 86 89 93 96 96 92
47 54 55 49 53 52 55 60 61 62 65 65 67 62 56 56 57 57 57 57 58 61 61 62 64 67 72 74 76 79 83 85 88 91 92 90 83 73
49 54 56 57 62 58 61 64 62 64 55 58 56 59 52 51 53 56 56 57 57 60 62 63 68 72 73 75 79 82 83 86 87 85 80 74 63 52
63 64 59 52 55 61 65 65 62 60 60 55 52 51 50 52 57 57 56 55 57 59 63 67 70 71 75 78 79 82 82 82 78 73 66 56 46 40
56 62 57 61 63 63 61 67 54 51 51 51 49 49 52 54 56 54 54 54 58 63 66 68 70 73 75 77 79 79 76 72 67 60 51 42 36 34
57 56 56 57 58 60 59 59 59 53 48 48 50 51 52 51 54 53 55 60 63 66 68 70 72 74 76 77 75 70 66 62 56 50 40 33 27 29
51 57 57 54 55 53 52 47 45 44 44 45 47 49 49 51 53 56 60 63 65 67 69 71 73 74 73 72 67 61 57 53 48 38 29 25 22 23
51 49 46 45 42 39 39 41 43 44 44 45 46 47 51 56 59 60 61 63 65 67 70 71 71 71 68 60 57 54 50 46 39 29 22 20 20 20

GFSNE_500_spd_117.txt.gz
Wind_Speed
43 38 41 46 47 40 39 37 37 43 44 45 48 41 38 34 34 31 29 27 26 23 25 27 29 31 34 36 38 40 42 44 46 47 48 49 54 57
44 44 46 46 45 45 37 38 38 43 47 39 41 35 35 36 35 33 33 29 29 29 31 33 34 35 36 40 41 44 46 47 49 52 54 56 60 63
44 39 43 48 42 39 32 35 40 39 36 31 31 33 35 38 37 35 35 34 32 33 34 36 37 39 40 43 46 48 51 52 51 56 58 60 62 64
40 38 41 33 29 31 28 34 40 45 45 44 32 30 36 40 39 32 33 34 34 37 38 40 42 44 45 49 52 53 55 55 57 57 59 60 62 66
34 31 23 36 28 28 33 33 35 36 35 40 35 30 29 29 33 32 33 35 40 42 44 45 48 48 52 54 55 57 57 58 58 60 63 66 68 72
29 29 30 28 33 31 31 27 31 30 28 30 31 29 30 32 35 35 38 41 43 46 47 50 52 53 54 56 58 59 60 59 62 65 69 73 76 72
17 19 19 28 32 31 30 29 29 30 32 33 33 36 37 38 38 40 42 44 48 49 51 53 52 53 55 57 58 60 63 66 69 74 77 79 80 75
19 19 21 26 27 31 34 34 35 37 37 37 36 36 38 40 42 45 47 48 50 51 50 51 53 56 58 60 62 65 68 71 76 80 81 75 73 75
23 24 24 25 29 31 33 34 35 36 37 38 40 42 43 45 47 47 48 50 51 50 51 54 58 60 62 66 70 74 75 74 69 68 73 72 72 73
23 24 25 26 28 31 33 35 37 38 40 42 43 43 45 46 47 48 49 51 52 54 55 59 62 65 68 71 76 76 68 68 71 68 69 71 72 74
27 28 30 31 32 34 36 39 41 42 41 40 41 42 44 46 48 50 53 55 57 60 63 67 67 71 77 73 63 65 70 67 66 68 70 71 74 76
26 28 30 31 33 35 37 39 39 39 39 40 42 44 47 50 53 55 57 61 63 66 70 69 70 67 65 64 65 65 65 66 68 69 71 72 74 78
30 29 30 31 32 34 37 40 41 42 43 44 48 47 52 57 58 57 59 62 62 66 71 69 65 64 65 63 61 62 64 67 69 70 72 76 79 82
34 35 35 35 37 40 42 44 47 51 49 48 53 48 53 56 59 61 63 66 66 68 73 67 61 62 58 59 60 63 66 68 69 73 74 78 82 87
35 36 37 38 43 42 42 46 47 47 50 53 53 54 61 64 64 65 66 67 72 78 69 61 60 59 61 62 63 64 67 68 71 74 77 82 86 88
38 39 40 42 49 44 45 44 51 52 57 57 57 57 62 61 66 67 70 75 65 61 61 56 60 60 61 62 64 64 68 71 73 76 81 85 87 87
43 42 45 46 45 50 48 51 54 57 63 61 60 58 64 67 64 65 61 57 57 58 56 59 61 61 60 63 64 67 70 71 75 79 82 84 85 84
46 41 55 51 46 53 54 54 57 58 59 62 64 65 66 62 60 61 59 56 55 56 58 60 59 59 60 63 67 68 70 74 78 80 82 81 80 77
52 52 55 59 63 65 65 64 69 74 69 67 69 71 65 61 57 58 57 55 55 56 57 57 57 58 62 64 66 69 72 75 78 79 77 75 71 65
48 51 55 57 63 63 64 67 70 63 60 61 60 64 62 55 54 52 51 54 55 54 54 55 59 60 62 65 67 71 73 74 75 73 69 66 60 56
46 51 53 57 59 60 61 62 60 62 63 60 59 56 52 49 49 51 53 53 51 52 55 58 60 61 63 66 69 71 72 72 69 65 62 56 52 45
44 48 51 53 57 59 61 61 58 56 53 50 47 46 48 49 51 51 49 51 53 55 57 58 59 61 64 67 69 70 68 64 61 58 53 50 43 35
39 40 42 44 45 45 45 43 43 43 43 44 46 47 49 50 51 52 54 56 57 57 57 58 60 63 65 67 68 67 61 57 54 50 46 41 34 30

GFSNE_500_spd_123.txt.gz
Wind_Speed
31 32 33 34 42 42 37 34 34 40 37 40 40 37 34 31 35 36 34 36 36 37 37 35 34 35 36 34 31 30 32 35 37 39 43 45 47 49
32 32 29 34 42 46 43 37 32 30 32 33 36 39 36 31 30 29 31 37 34 38 39 39 36 36 35 37 37 34 36 38 41 44 47 48 50 53
34 36 40 38 39 50 48 42 35 34 34 33 37 33 35 33 28 30 32 36 37 35 36 37 36 38 38 38 37 39 41 44 47 48 51 54 56 55
39 36 37 42 41 47 49 40 40 38 36 31 27 33 36 30 29 27 32 36 38 34 36 37 36 35 37 39 42 44 46 48 51 54 56 55 56 56
35 35 39 42 47 52 47 46 45 41 36 31 26 24 26 27 26 28 30 29 29 31 30 30 33 37 40 42 46 49 50 53 56 57 57 57 55 58
27 31 35 41 45 41 48 43 44 42 36 31 27 27 28 27 24 22 21 24 28 31 32 36 41 44 45 46 48 51 53 56 57 58 58 58 60 64
28 31 31 37 39 44 43 44 41 38 34 31 27 26 23 23 24 26 28 30 34 36 40 44 46 46 48 50 52 52 53 54 57 59 61 64 67 70
23 19 19 30 37 39 35 38 42 34 35 34 34 27 26 27 30 32 34 36 39 41 44 48 49 51 51 51 51 51 53 57 60 63 65 66 72 74
16 18 16 15 23 30 35 32 33 36 36 37 32 34 32 29 37 36 37 39 40 44 47 49 49 49 50 51 53 53 55 58 64 68 69 72 70 72
9 9 11 14 16 17 19 22 26 30 28 34 35 34 32 36 40 40 40 42 44 46 46 47 49 51 51 53 53 53 58 64 68 69 71 69 71 71
19 19 19 21 24 23 24 27 29 32 33 36 36 38 38 40 39 42 44 43 45 46 48 47 50 51 52 57 61 65 61 69 69 71 69 74 78 74
24 25 25 25 26 27 31 28 32 34 34 36 36 37 37 39 39 40 43 46 49 52 49 51 54 56 61 64 63 64 70 72 70 70 72 72 69 68
28 28 28 29 30 31 32 35 33 36 36 37 34 36 39 40 41 45 47 48 48 51 54 60 62 61 68 68 65 70 74 74 69 67 69 68 66 67
30 29 30 34 36 36 37 37 35 35 34 35 35 36 39 42 46 47 47 46 52 61 60 64 71 72 73 73 72 68 69 68 67 66 64 62 64 64
31 30 31 31 31 32 30 28 30 33 31 39 39 40 47 47 47 51 51 57 62 66 67 59 56 60 62 65 66 65 65 62 61 60 63 64 63 63
34 32 34 37 35 31 31 30 34 35 39 45 42 43 48 49 56 58 60 63 59 60 65 71 74 69 63 65 64 64 64 61 61 61 61 62 63 64
35 38 35 38 35 39 36 37 39 42 49 47 49 52 50 53 56 57 59 66 67 67 65 64 65 64 64 63 61 61 58 58 58 59 60 62 63 65
35 39 40 44 46 42 42 41 49 49 48 50 48 50 53 57 62 64 64 64 62 60 60 61 59 58 56 54 54 54 56 57 58 59 62 63 65 66
37 40 40 37 42 45 42 41 44 46 50 54 58 54 54 56 58 58 59 56 56 56 55 54 53 52 51 51 52 54 56 58 59 60 61 63 65 66
41 39 42 39 37 38 41 43 45 46 46 48 50 51 52 53 53 52 52 53 55 54 53 53 53 52 51 53 54 56 57 58 59 60 61 63 64 65
27 29 32 34 37 40 40 40 43 45 45 46 45 46 48 51 53 54 55 56 56 55 55 54 52 52 53 56 58 58 58 57 58 59 62 64 63 63
32 33 35 37 37 37 37 38 40 42 44 46 48 50 52 53 54 56 57 58 57 56 54 51 52 54 55 57 56 56 57 57 58 62 63 63 61 58
28 31 33 35 36 37 39 41 43 44 45 47 49 51 53 54 56 56 55 52 50 50 50 50 52 53 54 55 56 56 57 60 62 64 64 60 56 53

GFSNE_500_spd_126.txt.gz
Wind_Speed
28 27 28 28 28 31 29 31 37 36 33 36 39 39 40 41 43 40 40 34 37 36 33 34 33 34 36 35 37 37 38 39 37 35 39 40 41 43
31 29 30 29 32 32 35 31 38 39 33 30 34 38 34 34 34 41 45 38 38 32 31 31 33 36 38 38 37 35 36 37 39 41 42 43 45 48
31 31 31 32 32 38 39 35 39 40 37 31 30 29 27 30 36 37 34 38 33 36 34 34 36 34 36 38 37 36 38 41 43 44 47 49 52 52
32 33 33 33 38 36 41 38 42 44 41 37 33 33 29 31 26 29 27 31 30 30 28 35 44 37 37 37 35 37 39 41 45 48 50 52 53 54
31 34 35 42 40 40 43 42 43 45 44 39 34 32 29 28 26 25 26 25 28 29 32 36 33 33 35 35 37 42 46 46 48 49 51 52 54 56
33 33 38 34 34 41 42 47 45 45 44 38 37 36 29 27 26 26 26 25 24 23 27 28 32 34 37 40 43 45 46 48 51 52 53 53 54 57
34 36 31 33 37 46 48 42 49 49 46 41 40 39 29 28 27 26 26 25 28 28 29 31 36 41 42 44 45 48 51 52 51 51 53 56 58 61
28 29 31 34 34 35 40 45 44 46 43 40 42 35 30 29 32 31 28 30 31 34 36 37 39 41 43 46 50 50 49 50 51 53 56 58 60 66
24 25 25 28 31 35 35 38 37 42 49 43 40 31 31 30 32 31 35 36 37 37 37 39 41 44 47 49 50 50 50 54 55 56 61 66 69 70
24 19 18 15 24 29 35 40 39 32 37 38 33 34 35 34 33 37 36 38 39 41 41 44 46 46 48 50 52 54 58 57 61 65 68 72 74 72
23 19 15 14 17 24 25 30 34 32 25 24 29 33 37 33 35 37 39 44 44 45 45 44 45 48 51 54 54 58 63 68 70 70 76 79 78 73
27 24 21 21 20 16 18 20 24 26 23 27 31 31 34 35 39 41 43 44 45 45 44 48 52 52 55 56 62 66 70 72 75 67 60 66 75 73
28 28 28 28 26 26 28 29 27 30 30 37 37 42 44 41 40 42 42 46 47 47 49 55 54 56 57 62 66 72 76 69 67 75 75 69 68 67
33 31 30 32 34 35 36 37 36 39 43 45 40 42 42 44 46 45 41 46 47 55 55 54 59 59 63 69 68 67 70 73 71 69 69 69 69 69
39 36 35 35 35 35 36 38 39 40 41 43 43 44 42 44 42 41 45 48 56 55 58 60 63 64 61 66 70 67 65 66 67 67 66 66 64 62
42 41 40 38 35 33 35 34 36 36 37 36 39 38 42 46 54 51 55 54 61 61 64 64 61 65 65 62 62 63 63 63 63 62 60 59 59 60
45 46 45 46 40 39 42 39 42 42 42 40 41 50 51 53 52 54 54 57 58 58 61 62 61 58 58 59 60 60 59 59 59 59 59 59 60 62
37 42 48 43 41 45 43 43 42 40 47 53 48 49 52 53 54 53 51 52 54 57 54 54 55 57 58 58 59 60 60 61 60 57 58 60 62 62
46 50 37 38 45 47 45 45 47 48 52 54 58 54 47 47 46 48 47 49 50 50 52 54 55 56 57 59 62 61 58 55 54 56 59 60 59 59
49 53 55 53 48 44 47 52 48 47 45 39 37 38 39 42 44 44 45 48 50 51 52 53 55 57 58 57 55 53 52 52 54 55 56 58 60 60
48 45 44 44 34 33 33 33 34 33 34 35 36 39 40 42 44 46 47 48 50 52 54 55 56 56 54 52 50 49 49 52 54 57 59 59 59 62
21 21 20 22 23 23 24 26 28 31 33 34 37 40 41 44 47 48 49 51 52 53 54 55 53 51 49 50 50 52 55 56 58 59 58 59 61 64
22 21 22 23 25 27 29 32 34 36 38 41 43 43 46 48 50 51 53 54 53 54 53 53 51 51 52 53 55 56 58 58 58 59 59 61 63 65

GFSNE_500_spd_129.txt.gz
Wind_Speed
29 29 29 29 29 30 31 32 31 39 36 42 38 37 38 39 43 40 43 43 45 43 42 41 40 37 35 37 35 35 36 38 38 37 35 36 38 40
31 31 31 32 33 30 32 30 29 27 32 37 38 40 38 38 41 41 44 46 34 37 42 44 37 33 36 36 36 36 38 38 40 37 37 39 41 43
31 34 33 34 35 35 34 34 33 38 34 37 37 39 37 36 36 33 27 31 33 36 35 37 34 36 41 38 37 37 38 39 37 37 37 39 43 45
32 35 35 37 38 35 37 39 42 39 42 40 37 41 39 32 26 25 28 27 28 27 27 31 33 39 38 36 40 40 40 38 37 40 43 44 45 47
34 35 37 38 37 38 37 38 38 39 36 40 38 44 43 36 28 24 26 30 27 26 28 30 33 36 40 40 37 36 37 39 42 45 45 47 50 51
35 36 37 39 38 38 42 46 42 41 47 41 42 40 40 37 30 26 27 27 27 28 29 28 27 28 33 35 36 38 38 43 44 46 49 51 51 52
37 36 38 39 40 39 47 39 41 46 47 43 40 41 40 38 30 28 28 26 26 26 27 28 30 32 34 36 39 42 41 43 47 50 51 52 55 57
35 35 39 38 38 44 39 41 46 46 44 50 43 46 42 36 33 32 29 29 31 30 29 32 34 35 36 38 40 41 44 46 48 49 52 55 57 60
34 34 38 37 39 36 37 41 38 45 50 46 39 44 42 35 35 36 27 26 32 35 34 37 38 38 39 40 42 45 46 48 51 53 54 57 61 66
32 34 36 34 30 23 27 35 33 35 37 37 34 34 40 46 45 42 34 33 35 37 37 40 40 41 43 47 46 48 48 53 56 58 58 64 68 72
30 36 35 33 26 23 22 23 34 30 31 31 27 31 41 48 41 39 40 41 37 39 41 41 44 45 47 48 48 50 55 57 58 61 64 69 74 71
32 34 35 33 27 27 16 18 17 24 26 30 29 33 27 30 32 36 39 40 40 40 44 47 47 46 51 52 53 57 58 59 62 65 71 69 71 71
34 37 33 34 31 26 25 23 19 17 23 28 27 27 27 30 33 39 38 38 42 44 46 48 50 50 52 53 55 59 63 66 66 66 66 65 65 66
37 37 39 37 34 31 30 25 27 27 25 26 30 35 36 39 40 42 42 45 47 52 52 50 48 49 51 56 63 64 66 66 67 65 62 62 64 66
36 37 43 41 39 36 35 35 36 36 39 35 36 39 38 39 43 47 51 43 46 51 48 48 51 53 57 62 66 69 64 60 58 59 62 63 65 66
36 42 45 44 41 41 39 39 37 36 37 38 41 43 46 48 50 54 54 50 53 55 55 57 59 61 64 67 60 56 54 55 59 61 62 65 66 64
38 43 43 51 45 43 42 41 38 39 42 39 41 43 44 46 46 53 54 53 54 55 55 57 58 58 55 50 52 54 56 58 61 62 64 64 61 58
42 35 40 40 41 44 44 45 44 43 43 46 48 48 46 48 51 53 56 59 61 59 58 54 47 46 48 52 55 58 59 61 62 63 61 58 54 53
32 40 45 45 41 47 52 43 49 52 52 51 50 51 54 59 60 58 59 59 54 45 41 41 48 51 51 53 55 57 59 59 60 59 55 53 54 55
41 41 48 49 55 58 56 54 56 58 58 62 58 57 60 63 57 53 47 39 38 41 44 47 49 51 54 55 56 57 58 58 56 55 56 57 58 59
44 47 46 49 49 42 49 54 53 52 51 54 52 48 39 34 33 33 34 38 42 46 48 50 52 56 58 58 57 57 56 57 57 57 57 56 57 59
32 33 34 33 38 39 41 38 36 37 27 26 27 28 30 33 37 40 43 46 48 50 52 54 56 58 60 57 57 59 60 58 58 57 56 56 58 60
18 21 23 24 26 27 27 29 30 30 31 33 35 37 39 42 44 47 49 50 51 53 56 58 59 59 59 59 59 59 59 59 59 58 57 57 58 60

GFSNE_500_spd_132.txt.gz
Wind_Speed
32 32 31 29 29 29 28 29 30 34 39 38 32 35 37 35 36 37 38 42 42 42 38 43 46 48 45 41 36 33 35 39 37 35 35 33 36 35
34 33 33 33 32 31 31 30 32 33 38 38 43 31 35 36 40 40 45 43 41 48 36 43 46 40 40 39 37 34 37 40 37 37 37 37 36 34
35 34 34 34 33 32 35 34 34 36 37 36 36 35 41 40 39 41 42 45 41 38 33 34 35 33 34 31 36 35 39 41 40 39 36 37 37 38
35 35 37 35 35 36 36 37 38 37 40 41 37 41 40 36 35 39 40 37 28 30 32 31 31 28 28 29 32 36 37 40 37 35 36 38 38 42
37 36 38 36 36 38 38 39 41 37 39 46 42 42 42 42 42 42 44 35 30 29 29 31 30 29 30 32 33 36 39 39 38 39 39 42 44 44
38 38 39 38 38 39 40 41 41 40 41 41 41 41 41 37 40 40 42 36 32 28 29 32 30 29 29 28 29 30 34 37 39 42 42 43 45 48
39 39 40 40 40 40 41 42 41 42 41 48 51 46 43 44 41 40 34 35 33 30 28 29 30 29 29 29 31 33 35 38 41 43 43 46 48 47
40 40 40 41 40 40 41 40 42 45 49 52 42 48 49 37 46 42 40 38 34 29 26 28 30 30 31 34 35 36 36 39 42 44 46 48 47 52
40 41 41 41 40 39 41 39 41 46 45 42 40 42 46 36 38 46 41 37 34 32 29 27 31 35 35 36 40 40 39 41 43 45 47 48 53 56
40 42 41 41 38 36 39 38 37 35 36 38 40 44 44 40 38 35 39 36 37 34 34 33 32 34 39 39 39 40 44 45 46 49 51 54 57 60
40 41 40 40 34 35 38 36 33 31 27 34 29 29 32 31 32 39 41 44 45 37 33 38 41 39 41 41 40 45 48 47 53 53 54 58 61 66
38 38 36 38 36 34 35 32 32 29 25 28 26 30 25 28 28 31 34 43 39 34 41 43 42 42 41 43 46 47 49 52 56 55 57 62 65 66
37 38 38 38 31 30 32 33 31 28 23 24 23 24 26 25 27 28 36 34 33 37 38 39 39 42 44 48 51 53 50 52 57 60 63 63 62 58
36 36 35 37 35 32 29 36 36 30 30 25 22 21 24 28 28 30 30 33 38 45 43 42 45 46 46 48 49 50 54 58 62 63 66 60 54 56
36 35 38 36 37 34 35 34 41 34 35 29 25 26 28 29 33 39 40 39 42 41 40 44 49 44 44 50 56 57 59 61 63 62 54 52 55 62
41 43 41 36 37 37 37 37 40 43 36 37 37 36 36 35 35 38 42 45 46 51 53 54 55 59 59 61 65 64 64 62 55 52 54 55 60 62
50 46 41 42 40 35 37 38 37 43 41 38 37 37 38 36 40 41 43 46 49 53 53 54 56 57 59 60 61 64 57 49 49 52 55 58 61 62
51 50 48 41 38 41 40 35 37 44 43 40 43 41 47 48 48 48 49 51 56 59 60 60 63 64 59 55 51 48 47 48 52 55 57 59 61 62
40 44 45 46 44 42 40 41 37 42 47 47 44 44 46 48 52 54 54 57 57 59 59 60 61 62 52 44 45 46 49 53 55 58 60 62 62 62
38 41 42 43 44 39 40 42 40 45 48 52 52 54 56 57 57 57 61 62 62 58 53 51 45 41 43 44 46 51 55 57 58 60 62 61 62 62
24 27 31 35 38 40 44 41 39 46 49 50 50 49 51 48 48 45 40 36 38 39 37 39 40 43 45 48 51 54 57 58 60 60 61 62 62 63
20 15 28 26 27 30 30 28 33 33 33 34 29 28 28 32 33 34 35 35 36 39 41 43 46 49 51 53 55 57 58 58 59 60 60 60 61 62
20 20 20 20 20 24 23 28 24 26 28 28 29 30 32 34 35 37 38 40 41 43 45 47 49 52 54 55 56 57 57 60 61 61 60 59 60 61

GFSNE_500_spd_138.txt.gz
Wind_Speed
34 33 32 31 28 29 28 27 30 28 27 29 27 32 34 33 35 39 41 47 33 32 34 37 33 38 40 43 40 44 46 48 49 48 47 40 33 35
37 35 34 33 33 31 30 30 30 30 28 29 30 31 37 35 36 38 37 40 44 36 34 36 37 40 41 42 41 41 43 48 50 48 45 38 35 35
39 37 37 37 35 34 33 32 32 32 31 31 31 35 36 39 38 38 39 35 39 40 36 39 36 37 38 38 40 42 42 43 49 41 38 35 35 37
41 40 40 39 38 36 36 36 35 34 34 35 34 36 37 38 40 39 39 37 36 37 40 38 39 43 42 42 41 41 37 39 39 38 37 40 36 40
43 43 42 41 39 37 37 38 37 37 36 38 37 36 37 39 42 41 40 39 40 40 41 42 37 42 45 43 39 37 35 36 36 39 38 40 37 45
45 45 44 42 40 40 39 38 38 38 39 40 41 39 38 40 42 43 42 42 44 42 45 41 45 38 40 39 38 38 36 36 37 36 37 37 36 37
47 47 45 42 43 42 40 38 40 40 40 41 41 41 38 42 43 42 43 45 46 44 43 42 43 42 36 37 37 36 34 34 34 36 37 39 38 40
52 51 49 43 43 43 42 40 41 41 41 41 42 42 39 42 43 45 47 48 50 48 46 47 49 44 42 40 39 36 37 35 36 38 38 41 43 45
43 50 55 42 45 44 43 41 41 42 42 42 43 41 40 40 40 43 48 49 50 48 51 52 43 44 42 41 40 39 38 37 37 40 42 43 46 47
35 41 40 40 42 41 42 41 42 43 43 43 44 43 43 41 41 44 45 48 45 50 47 43 49 45 40 43 43 37 34 34 37 41 43 44 47 46
32 37 40 40 40 42 42 41 42 42 43 44 45 44 43 47 45 43 41 39 40 42 47 47 48 44 38 45 44 36 37 38 41 43 43 49 51 51
32 38 40 41 39 39 40 42 43 43 44 44 42 44 37 37 41 39 37 35 41 43 42 43 48 39 41 41 42 41 42 43 44 47 48 47 48 52
38 39 37 39 41 41 41 42 43 43 42 41 44 40 39 40 42 38 38 34 38 36 34 33 36 36 35 37 39 43 42 41 43 46 52 53 56 60
34 36 39 40 39 39 38 40 42 39 37 42 42 43 41 39 37 35 37 38 35 32 25 27 31 34 35 41 37 38 42 44 47 50 53 56 56 58
36 36 37 38 38 37 40 38 39 39 40 39 41 41 43 42 44 37 37 35 31 27 27 30 29 36 38 34 39 41 44 48 49 50 50 51 60 65
34 34 35 37 38 37 38 39 40 38 40 41 41 43 43 43 43 41 41 42 44 39 32 28 27 29 36 39 42 44 46 46 46 49 55 62 67 62
31 32 34 37 39 42 39 41 42 43 44 45 45 44 44 41 41 39 41 42 41 36 34 36 37 37 38 41 45 50 54 57 58 62 63 63 62 59
31 32 34 36 40 42 43 46 50 53 52 54 50 47 46 43 40 38 37 36 40 41 42 44 43 44 46 50 52 54 57 59 56 57 57 56 53 54
35 35 36 36 38 42 46 48 51 54 54 49 48 49 52 45 44 46 45 41 39 44 49 49 50 54 55 56 54 50 49 50 52 49 49 53 56 52
32 31 32 32 32 33 35 37 42 45 45 44 46 45 47 47 48 49 48 48 48 51 53 56 54 49 46 43 42 42 43 46 49 50 48 47 47 49
29 27 26 26 26 27 26 25 28 33 39 41 43 46 48 47 47 47 47 45 43 41 40 37 35 36 35 37 39 40 43 44 43 45 47 50 53 56
27 26 26 24 23 23 24 25 26 28 24 28 27 27 27 29 30 32 32 34 32 30 31 32 34 35 37 38 39 41 44 46 49 51 53 55 56 57
30 30 26 26 28 28 27 27 28 28 29 30 31 32 35 31 29 31 30 31 32 32 33 35 35 37 40 42 45 47 48 50 52 54 56 56 56 56

GFSNE_500_spd_144.txt.gz
Wind_Speed
42 39 36 38 36 31 31 31 32 28 27 25 27 28 27 27 26 26 28 27 28 27 27 29 30 31 33 32 34 34 34 36 39 39 37 39 39 38
45 42 39 37 38 36 35 32 33 32 30 29 27 26 30 29 28 27 29 29 29 31 30 31 32 32 33 35 33 35 31 33 38 40 39 39 39 40
50 45 41 38 36 36 39 37 33 34 33 31 31 30 29 30 32 30 31 31 31 33 35 34 33 34 34 34 35 33 31 36 40 40 38 41 44 44
52 50 44 40 36 36 37 39 39 36 37 34 36 34 31 32 33 33 34 36 34 33 36 38 37 36 38 36 34 36 36 37 36 35 44 44 47 48
49 48 46 44 43 39 39 41 44 44 41 40 38 41 36 35 36 35 37 38 38 37 38 38 39 39 39 38 38 36 40 43 44 47 41 43 48 50
46 47 48 46 46 44 44 46 47 48 47 45 44 44 39 37 39 39 41 41 39 40 40 42 41 40 41 41 41 42 41 41 43 46 49 38 46 48
50 47 42 44 45 48 50 47 52 49 52 51 49 48 40 40 42 44 44 43 43 42 41 42 40 39 38 40 42 43 48 52 47 48 42 42 47 47
51 47 47 46 48 51 54 59 58 57 57 53 47 51 42 43 44 46 45 45 44 43 44 43 45 47 49 49 46 47 53 52 52 52 53 47 47 52
49 49 48 49 52 55 56 52 47 47 48 53 51 48 46 45 46 45 46 45 45 46 44 44 44 46 48 45 46 49 51 48 56 51 52 48 50 47
52 52 52 52 46 41 46 47 38 48 37 56 50 50 51 49 47 44 45 44 45 47 46 45 46 44 43 46 48 49 51 43 50 55 51 52 54 43
48 49 46 42 46 51 56 48 50 37 43 55 55 54 56 52 46 43 45 45 46 47 45 47 45 45 43 43 43 45 51 45 45 48 53 52 50 41
44 50 47 53 65 60 56 44 41 48 52 50 55 55 49 41 43 45 46 46 47 46 45 45 45 45 46 47 44 43 44 44 45 46 50 52 44 40
54 43 39 38 30 30 31 41 36 31 30 33 35 38 37 42 45 45 45 46 45 44 42 43 43 46 46 46 46 44 43 42 42 40 45 40 32 41
30 29 29 27 27 28 27 27 31 31 32 34 36 39 41 43 43 44 43 41 42 43 41 42 45 45 45 44 44 41 43 44 40 39 40 33 34 39
34 25 26 30 25 26 25 30 32 32 34 36 37 40 41 40 40 40 42 42 42 41 43 45 46 46 47 46 46 46 44 44 42 34 35 39 38 39
30 29 33 32 31 30 30 37 38 38 38 38 37 35 37 39 40 39 40 42 43 44 47 49 49 51 51 49 48 45 43 41 40 40 44 41 42 42
40 41 37 35 34 39 36 36 35 36 35 36 36 38 40 42 40 41 42 43 45 47 50 52 56 55 52 50 50 49 45 43 39 40 42 43 44 46
37 35 34 32 31 33 35 34 35 36 36 37 37 37 40 44 45 46 47 48 51 53 55 55 57 55 50 50 52 52 48 45 47 50 51 51 52 53
33 33 32 32 32 32 33 33 34 35 37 38 39 41 44 45 44 45 45 44 44 45 47 51 50 48 49 53 51 53 54 52 51 51 53 54 50 43
32 33 33 33 34 34 34 35 37 38 37 37 37 38 39 41 42 41 39 38 38 37 38 39 41 46 48 52 56 56 51 48 46 41 37 34 32 33
35 36 37 38 38 38 38 38 37 36 35 36 38 38 38 38 38 36 34 33 34 36 36 30 28 29 30 33 33 31 31 31 31 32 34 33 32 32
35 36 38 39 39 38 38 38 37 37 36 37 37 37 36 38 37 34 32 30 32 31 29 28 26 26 29 30 33 35 37 37 38 36 35 34 34 35
35 35 35 36 35 35 36 37 38 38 38 39 39 39 39 38 38 36 34 33 32 32 31 30 30 31 31 32 36 37 35 34 33 35 38 38 40 42

GFSNE_500_spd_147.txt.gz
Wind_Speed
44 46 47 43 39 34 34 35 35 31 29 31 33 33 31 28 27 24 22 24 22 21 21 23 25 25 25 26 26 29 31 32 31 33 35 35 37 38
48 49 48 44 42 36 33 36 35 32 30 29 31 34 35 33 32 27 26 26 26 25 24 25 27 27 28 28 29 28 30 33 32 31 33 38 37 38
50 53 46 44 43 37 34 35 33 33 33 31 32 33 32 35 37 33 31 30 29 30 29 28 30 29 30 32 34 32 31 32 35 33 36 35 36 34
51 56 46 45 43 38 35 34 34 35 35 33 34 34 35 37 36 35 36 36 34 35 34 34 33 33 32 33 34 36 35 34 34 37 39 39 40 39
56 49 47 49 47 40 34 35 36 37 37 35 36 39 39 39 38 38 39 38 39 38 37 38 37 38 36 36 36 36 36 35 38 39 39 41 43 43
55 51 52 51 45 39 36 36 40 43 42 40 38 41 46 45 43 39 42 42 42 40 41 40 41 40 40 39 39 38 37 38 42 39 40 43 46 47
54 54 49 43 39 38 38 38 42 43 44 46 44 47 45 50 47 45 43 44 44 41 43 42 42 43 41 41 42 42 44 44 44 42 42 46 49 49
52 54 50 43 39 39 36 38 41 45 46 48 47 47 48 51 52 50 47 49 46 42 44 45 44 43 43 42 43 43 42 44 43 44 45 47 46 46
55 54 47 40 48 47 40 40 44 46 47 49 48 49 51 54 55 50 44 49 47 44 45 46 44 43 45 44 44 43 44 44 45 45 44 45 46 49
58 56 50 51 52 45 43 44 45 45 42 42 46 41 44 44 50 53 52 49 47 48 50 48 44 45 47 45 44 43 41 40 41 44 43 44 41 44
58 56 51 52 50 49 50 45 49 45 39 35 43 47 38 37 44 42 47 50 49 51 50 47 46 45 46 45 44 44 42 43 43 44 44 40 40 42
45 50 52 48 50 49 46 44 48 51 56 56 44 49 51 48 48 47 47 56 51 46 45 45 45 46 45 42 42 40 39 41 43 46 44 41 41 40
35 41 41 46 42 45 47 44 41 50 54 54 56 42 38 43 49 53 47 48 44 43 44 44 45 45 42 41 40 40 40 42 43 44 44 43 41 39
35 37 38 36 39 46 46 53 51 49 44 41 37 36 37 37 37 36 37 38 41 43 44 44 43 44 41 40 42 43 44 45 47 46 45 43 41 39
42 40 46 43 45 43 40 36 31 36 31 28 34 34 34 34 36 38 38 40 43 42 42 43 44 42 42 43 45 46 48 50 49 46 45 44 42 40
36 33 31 35 33 32 37 30 27 26 29 29 28 28 32 35 37 40 40 39 39 41 41 41 42 42 43 45 47 50 53 55 55 50 47 48 47 46
37 33 28 28 29 30 31 35 32 27 30 34 35 38 38 37 36 37 38 38 40 41 41 42 42 43 45 47 49 50 53 54 52 50 51 48 48 48
37 34 31 33 39 40 33 32 31 35 39 36 35 35 36 37 38 39 39 41 41 41 42 43 43 44 44 44 44 45 46 46 48 50 52 51 52 55
27 27 28 30 32 31 30 32 34 36 35 35 35 37 37 37 38 39 39 41 43 42 41 43 43 40 40 39 40 41 42 41 39 40 40 38 39 43
29 30 29 31 31 31 32 33 33 33 33 35 36 37 38 40 39 39 38 38 40 42 41 39 39 39 38 37 38 38 37 39 38 36 33 32 31 31
31 32 32 32 33 34 34 34 35 36 36 37 37 37 37 37 37 37 37 38 39 39 39 39 38 37 34 34 33 30 26 25 26 27 28 30 31 32
32 33 34 35 35 35 36 36 36 36 37 37 37 36 37 37 37 38 38 40 41 41 41 38 33 31 30 30 29 30 30 31 33 33 33 34 36 37
34 35 36 36 36 36 36 37 37 37 37 37 37 38 39 39 38 39 40 41 41 43 42 38 36 35 32 31 32 33 33 36 36 37 39 41 42 44

GFSNE_500_spd_150.txt.gz
Wind_Speed
74 61 52 48 48 44 44 39 35 31 28 30 29 30 31 32 32 31 31 29 27 24 25 25 23 23 23 23 23 25 27 26 27 30 32 33 31 34
73 66 57 53 49 48 46 43 39 34 32 30 30 32 30 29 32 32 33 33 33 30 27 27 26 24 25 25 25 26 28 30 30 32 34 36 36 35
74 72 61 58 50 52 48 46 42 38 34 35 34 33 31 32 32 33 32 32 34 33 33 32 31 30 29 29 28 29 29 31 31 33 32 33 37 38
80 74 69 62 54 54 51 48 43 40 37 36 36 34 32 32 34 35 36 35 34 34 35 36 35 34 35 33 32 32 32 33 33 33 33 31 33 37
70 78 72 62 56 53 52 49 43 42 41 39 38 36 35 33 34 34 35 37 39 40 39 38 39 38 38 37 36 36 35 36 35 36 38 40 40 40
92 76 70 65 57 53 53 50 45 44 42 41 40 39 37 35 36 37 40 43 42 43 42 43 44 42 41 39 37 38 39 38 39 39 40 41 41 39
77 77 68 63 56 53 55 53 48 46 46 46 43 42 39 39 38 39 43 43 46 45 45 47 46 44 44 43 39 41 43 42 42 43 42 41 38 40
73 51 59 65 58 59 59 54 49 49 50 46 45 44 43 42 44 44 44 44 43 45 52 54 49 46 48 46 42 43 45 43 43 44 44 43 40 39
81 54 49 64 62 63 59 58 55 52 49 45 45 47 47 45 46 46 45 45 49 51 50 55 56 54 50 50 45 46 47 46 45 45 45 43 41 42
64 55 57 59 60 58 57 58 48 46 43 43 44 43 44 49 47 45 42 40 44 49 51 50 48 49 50 51 50 50 47 46 46 46 44 43 42 42
46 52 57 56 53 52 54 50 43 46 48 46 41 39 41 44 41 38 40 43 39 39 47 53 49 52 50 50 48 47 45 45 46 45 42 39 41 41
47 61 59 59 55 54 54 46 46 52 43 36 43 45 43 43 48 39 40 42 46 46 42 39 43 47 49 47 44 44 45 45 46 43 40 41 43 43
44 55 42 54 62 58 61 37 62 66 48 50 44 48 57 54 51 40 48 49 56 49 52 48 48 46 45 43 44 44 44 45 44 43 43 43 44 46
42 46 44 46 48 56 44 51 54 49 49 45 49 47 49 48 51 54 44 40 44 48 50 51 43 39 41 44 44 44 43 43 43 44 45 46 48 49
32 31 35 43 46 48 46 46 45 47 45 44 47 48 56 63 55 48 47 45 41 38 38 38 38 40 42 42 43 44 43 43 43 44 46 48 48 49
38 38 35 41 38 37 45 42 46 46 49 50 52 45 45 38 41 43 43 39 37 38 40 40 41 39 40 41 42 43 42 43 42 43 45 46 47 47
36 34 37 41 39 38 43 46 48 49 50 47 41 39 37 36 34 33 33 36 39 41 42 42 41 40 42 42 43 42 42 43 41 40 42 43 43 44
25 36 38 39 38 36 39 43 39 40 35 38 36 34 35 37 37 39 40 40 40 40 40 42 42 42 41 40 40 41 42 41 40 42 42 41 41 41
34 32 38 40 44 43 39 41 41 40 40 38 36 36 40 38 40 38 39 38 38 40 40 39 40 39 39 40 42 43 42 41 42 42 41 41 41 42
26 26 30 33 42 44 45 45 49 45 38 32 31 35 39 39 39 39 39 39 40 40 39 41 40 39 41 43 43 43 42 43 42 43 42 40 38 35
26 27 30 30 30 30 30 31 31 33 35 38 39 39 39 38 39 40 40 41 41 40 39 40 39 39 40 41 41 43 44 42 40 40 37 34 33 34
28 28 29 30 32 33 34 35 35 35 36 36 37 37 38 39 39 40 41 41 40 40 39 39 39 40 40 42 43 44 42 40 39 38 38 38 37 38
28 29 30 30 31 32 33 34 35 36 37 38 39 39 40 40 42 42 41 40 39 38 39 39 39 41 43 45 45 45 44 43 42 42 41 41 42 44

GFSNE_500_spd_156.txt.gz
Wind_Speed
77 71 89 85 86 72 64 62 60 60 53 45 40 39 39 39 36 35 31 30 28 27 25 23 23 23 24 25 25 24 24 22 21 20 21 22 23 24
87 74 83 86 84 68 73 65 65 60 56 51 45 44 43 41 40 38 37 34 32 30 28 27 27 26 26 25 25 26 25 25 25 25 25 27 27 27
77 74 76 76 89 87 66 67 66 64 58 56 52 50 45 41 38 36 35 34 35 35 33 31 30 28 27 28 27 27 26 26 27 28 29 29 30 31
62 71 75 76 82 76 72 67 72 67 60 60 55 54 46 43 41 38 35 35 37 34 32 31 30 28 26 26 26 27 28 28 28 30 30 31 32 33
50 63 72 71 73 80 82 70 73 72 65 63 59 57 51 48 44 40 37 39 36 35 34 33 31 30 29 27 29 30 30 32 34 33 34 34 34 35
39 53 62 71 72 70 81 89 62 70 68 64 63 59 54 50 47 43 40 40 38 38 37 36 34 32 32 32 33 34 36 37 36 36 36 37 38 38
36 48 54 58 66 79 85 83 59 81 73 60 60 60 58 52 48 42 41 41 42 42 41 38 36 37 36 35 36 37 38 38 38 41 41 42 41 40
38 51 55 55 60 59 76 78 83 57 61 60 55 60 58 52 50 45 44 45 45 42 43 43 43 42 43 41 39 41 38 39 42 44 43 45 45 46
37 46 53 53 52 54 59 67 75 78 75 70 59 56 58 53 50 50 47 47 47 46 49 49 47 45 44 45 41 43 55 44 45 44 45 45 41 43
41 44 54 59 50 54 57 68 79 77 84 63 62 58 58 57 54 55 54 51 52 51 51 51 51 50 49 47 44 52 47 45 49 45 45 44 44 43
42 46 53 53 50 55 62 75 74 80 76 79 64 61 63 60 55 61 60 53 54 53 51 53 54 52 50 46 46 47 46 53 46 49 49 40 41 44
36 47 56 55 57 50 57 78 84 78 77 70 70 67 68 63 60 63 60 58 58 57 55 55 54 44 48 48 50 48 51 46 39 42 49 45 45 52
21 35 50 57 58 59 59 71 85 79 76 77 73 75 77 71 67 61 66 62 64 61 55 54 47 44 47 42 54 46 46 45 52 49 49 52 56 54
1 21 30 48 46 50 56 54 64 75 78 76 71 71 71 72 73 70 71 68 64 61 58 56 54 47 57 56 48 53 52 54 54 59 55 55 54 47
8 15 37 35 33 39 41 52 59 62 71 71 73 69 67 77 75 77 69 67 57 43 55 68 61 49 55 55 54 53 53 50 49 54 58 52 46 46
17 11 14 33 37 35 37 36 33 44 57 64 65 70 80 56 63 49 58 60 52 51 53 50 49 47 46 51 55 56 50 50 56 53 49 46 48 46
20 20 19 15 24 30 38 37 38 37 47 55 59 52 62 63 68 58 46 53 50 48 48 46 49 52 52 51 51 52 55 55 55 49 48 48 46 46
27 24 25 26 26 31 35 39 37 38 45 38 40 42 52 54 62 57 64 53 57 53 50 54 51 52 53 50 49 50 52 50 47 48 47 47 46 45
29 29 25 23 28 35 33 32 33 35 44 46 53 56 63 66 67 65 62 60 56 54 52 52 49 50 47 46 46 45 47 48 47 46 46 45 44 45
31 32 35 35 33 30 39 34 30 32 42 48 45 45 51 53 59 56 54 52 48 48 49 50 51 48 46 47 47 47 49 49 49 48 46 45 44 43
26 30 32 35 35 33 35 36 36 36 37 37 40 41 42 43 44 44 46 47 47 47 49 46 48 50 48 49 49 46 48 47 46 45 45 44 44 44
26 27 29 33 36 39 38 35 39 46 47 46 45 47 48 50 51 49 48 49 50 50 49 50 52 53 53 49 45 46 47 48 47 46 45 44 43 42
30 28 28 29 30 33 37 41 42 40 41 44 46 46 44 49 48 49 53 52 55 51 55 58 57 54 47 46 46 47 47 47 46 45 44 44 43 44

GFSNE_500_spd_159.txt.gz
Wind_Speed
53 50 56 62 65 61 73 75 68 66 62 60 58 54 50 48 43 42 41 37 34 32 30 29 28 26 25 24 25 25 25 26 25 23 22 22 21 23
54 54 59 66 75 73 69 81 80 72 68 66 63 58 52 50 47 47 45 41 39 36 34 33 31 30 28 27 27 26 25 25 27 27 26 25 26 26
46 49 55 67 74 79 76 81 84 68 74 67 66 63 59 56 53 52 49 45 42 39 36 34 34 33 31 31 30 30 28 28 29 29 28 28 29 28
53 52 51 52 63 79 83 75 87 76 59 73 71 69 62 57 56 54 51 47 44 42 40 40 38 35 34 33 30 28 27 28 29 30 30 28 29 29
50 40 40 43 48 70 77 77 78 82 68 72 75 70 65 64 59 55 50 48 46 45 44 42 38 35 34 32 30 29 29 30 30 30 31 31 31 31
42 40 32 35 38 57 72 77 71 82 78 48 84 74 68 66 62 58 53 49 47 46 46 40 38 38 36 33 33 33 32 31 31 33 34 34 35 35
43 42 28 33 37 50 64 71 65 69 73 75 73 73 71 68 63 59 54 52 49 48 46 41 39 41 37 37 35 36 35 35 33 33 33 35 34 35
38 37 30 34 38 44 55 64 66 68 76 70 69 76 74 67 60 59 56 54 51 47 46 44 43 41 40 39 39 39 38 38 38 39 38 38 39 35
45 34 33 32 40 43 51 58 61 70 78 69 67 74 72 65 59 58 54 52 49 47 50 48 47 46 46 44 42 42 42 41 43 45 45 40 42 40
43 43 30 34 43 47 49 58 66 69 66 73 72 44 69 65 59 56 54 57 56 55 53 52 49 47 47 46 44 44 46 48 49 47 48 45 44 44
45 38 38 34 44 49 47 51 64 62 76 63 60 60 65 66 62 63 64 63 63 57 54 53 53 49 47 46 46 46 47 54 53 39 44 46 45 47
45 26 27 31 43 50 50 50 53 59 64 68 66 70 63 64 69 65 62 63 62 55 55 54 55 53 50 50 53 52 51 48 50 44 49 46 46 50
38 25 18 24 39 46 51 51 44 47 52 65 75 72 66 76 68 62 64 62 56 55 54 56 56 57 56 55 55 55 57 45 41 49 48 47 49 48
34 29 12 16 38 44 50 50 50 54 58 64 71 69 70 70 63 65 65 68 60 62 61 59 59 59 59 60 58 54 56 52 56 48 44 45 52 52
30 32 17 8 26 46 47 47 50 48 54 65 69 72 68 68 71 69 75 64 63 67 68 60 64 61 61 61 61 63 57 54 52 47 54 53 54 55
27 26 18 13 25 33 53 50 55 52 50 54 62 70 69 66 69 67 67 70 73 70 73 71 68 67 65 60 62 62 53 57 53 48 52 55 56 52
23 26 18 11 25 28 40 51 54 56 58 61 59 68 72 66 67 71 70 56 62 72 64 70 72 68 60 54 57 56 50 51 49 51 52 52 51 52
19 21 20 17 14 33 47 48 49 39 45 56 60 63 67 68 67 68 69 67 58 64 60 52 57 58 52 57 53 51 49 48 50 50 51 52 54 56
22 18 21 23 22 15 22 37 42 40 47 46 47 56 59 61 64 68 68 74 72 68 65 78 63 53 54 56 54 52 52 50 54 55 54 55 54 51
23 20 24 27 27 25 25 28 28 34 46 40 44 41 53 58 58 57 59 71 74 76 77 68 63 52 53 53 50 53 51 51 52 55 55 54 51 50
16 24 24 26 29 32 32 32 29 27 29 32 35 35 36 59 61 65 66 77 80 83 83 65 55 54 65 55 48 49 52 54 56 53 55 52 50 51
18 17 24 26 26 29 31 35 31 27 31 29 33 33 35 38 42 44 44 50 49 49 47 44 44 48 48 48 54 55 52 53 53 53 55 55 51 47
22 22 20 22 27 28 31 32 37 39 38 37 35 40 42 44 44 44 48 50 50 49 47 52 53 54 53 53 54 55 55 55 56 56 53 50 47 48

GFSNE_500_spd_162.txt.gz
Wind_Speed
48 46 48 49 45 53 55 56 54 48 61 67 64 63 62 59 53 49 49 49 47 41 38 37 35 32 30 28 29 28 26 25 24 24 24 24 24 24
49 49 46 46 49 51 57 55 57 56 53 65 67 62 67 62 55 53 52 53 49 44 42 40 36 32 32 31 29 29 27 27 27 28 28 29 29 28
49 49 45 44 47 48 52 57 58 61 60 59 70 68 66 68 63 60 56 55 51 49 45 41 38 37 35 34 33 32 29 27 28 29 30 31 31 32
48 50 46 47 51 47 54 55 63 61 69 64 68 74 73 73 73 66 58 57 55 52 48 44 41 39 38 38 36 34 31 31 32 32 32 33 33 33
49 50 47 46 47 50 51 55 61 77 77 81 72 79 80 69 76 68 65 59 57 55 51 48 45 43 43 40 38 36 34 33 33 33 33 31 31 32
52 51 50 49 46 52 53 52 58 67 76 83 78 79 80 64 75 72 68 63 59 58 55 51 48 47 45 41 39 38 37 36 34 33 33 32 33 34
55 53 52 52 48 53 52 45 48 57 67 75 82 80 73 61 66 75 70 66 61 60 56 53 50 48 46 45 43 40 38 37 35 35 35 35 34 35
58 54 55 54 53 46 45 41 52 43 41 72 73 79 88 76 60 77 72 65 65 62 57 54 50 50 48 45 43 41 40 37 37 38 37 35 38 38
59 59 55 55 54 48 47 38 49 50 40 73 78 72 76 60 69 79 73 67 63 58 53 53 51 49 47 45 44 43 42 41 42 39 39 40 41 42
63 62 60 55 56 49 44 39 48 53 60 66 71 67 78 87 73 78 74 67 65 59 59 56 53 52 49 47 47 46 45 45 43 42 41 43 44 48
66 66 66 59 55 46 41 35 45 52 59 66 68 66 69 72 87 72 84 70 67 63 61 58 55 53 52 51 49 48 49 47 45 44 42 43 47 43
72 70 69 60 49 45 44 43 44 54 64 62 67 68 67 73 67 69 79 72 70 67 66 64 59 58 58 55 53 52 50 48 46 45 45 46 50 48
59 63 62 55 48 44 44 43 51 60 66 69 65 65 68 70 68 64 68 67 75 72 67 65 61 60 60 56 55 55 51 49 50 51 49 48 51 46
37 42 41 44 43 41 32 40 49 62 68 64 70 68 72 74 62 62 50 66 75 74 71 63 62 62 62 61 59 57 55 54 54 54 54 52 48 55
29 30 35 36 40 41 32 35 47 62 65 63 65 69 69 68 74 68 62 61 75 74 72 67 61 60 64 62 57 58 56 57 57 58 55 56 58 58
22 23 24 31 34 35 30 36 47 60 60 58 67 66 69 66 67 70 76 52 62 67 68 66 63 62 61 60 61 62 59 60 62 62 58 52 51 51
17 17 21 24 30 29 27 34 49 56 60 59 64 67 67 72 76 73 74 70 68 61 66 68 62 68 66 67 67 64 65 62 62 63 59 51 51 54
16 15 15 20 27 30 27 37 50 54 62 61 60 62 64 68 74 77 77 74 76 77 75 67 60 67 68 69 73 65 63 70 65 65 57 56 56 59
17 11 10 15 16 20 22 39 42 53 54 61 59 59 61 62 64 68 75 77 78 76 79 78 68 66 68 54 62 74 59 51 63 59 53 53 52 52
18 14 10 11 14 12 12 23 49 46 54 57 57 55 57 58 58 57 64 76 81 86 85 83 74 69 61 58 62 71 67 76 66 57 56 57 57 54
19 16 12 10 11 10 7 17 28 54 50 50 58 59 60 64 63 60 63 64 75 79 80 82 78 68 66 66 54 56 65 67 65 64 56 58 59 56
23 18 17 13 10 10 9 11 20 29 35 41 57 61 62 57 63 63 60 60 69 77 79 77 74 75 71 65 62 61 61 64 68 59 58 56 59 58
26 24 20 18 14 11 13 12 12 19 25 25 26 39 53 56 59 56 55 61 60 69 69 72 75 79 71 66 71 81 71 63 58 58 57 58 57 58

GFSNE_500_spd_165.txt.gz
Wind_Speed
52 50 50 50 50 46 45 43 45 45 44 46 45 50 57 62 64 61 61 51 50 49 48 45 44 40 40 38 37 34 33 32 32 31 30 28 26 25
52 50 51 51 50 47 46 41 44 45 47 45 48 49 53 63 61 61 64 61 54 51 49 48 44 42 41 40 38 36 34 35 35 33 31 29 28 28
53 52 51 51 51 49 45 42 40 42 46 46 49 49 51 59 62 62 69 66 60 57 53 49 51 45 43 41 39 38 36 37 36 35 33 32 31 30
55 54 53 53 52 51 47 44 42 43 43 48 50 55 54 54 67 68 52 64 65 62 57 52 51 47 46 43 41 39 38 38 37 36 34 34 33 32
55 54 54 54 53 54 51 45 45 44 47 47 45 52 56 58 61 70 65 70 72 70 63 55 51 51 48 45 43 41 41 39 38 36 35 34 34 34
55 54 55 55 55 56 54 50 47 48 47 50 51 49 61 64 66 73 84 57 74 74 65 58 54 53 51 49 46 45 42 40 38 36 35 35 35 34
57 56 55 56 57 57 57 52 50 49 50 53 55 55 59 69 76 68 77 65 59 75 69 60 56 53 54 52 48 46 42 40 39 39 38 36 35 34
57 57 57 57 59 59 60 58 53 51 50 50 52 56 57 75 85 78 74 71 73 82 73 63 59 54 54 53 49 45 42 42 43 41 40 39 37 37
63 61 59 61 61 62 63 62 57 55 52 53 52 54 52 61 68 82 77 75 85 56 73 69 62 56 54 52 51 49 48 46 45 43 42 40 40 39
72 69 66 65 68 67 66 65 61 58 54 54 53 53 59 56 57 71 74 67 82 53 76 76 65 57 53 54 55 52 48 45 45 44 43 42 42 40
66 73 74 72 72 73 70 67 64 62 56 55 51 51 54 48 52 65 78 85 73 62 77 76 66 60 56 56 53 51 49 47 46 45 44 44 41 41
42 51 61 70 71 74 72 69 64 64 56 54 52 50 56 49 53 59 74 82 72 54 52 70 64 63 59 57 54 54 52 49 48 46 45 44 42 42
34 35 38 44 53 63 74 74 68 65 57 55 49 52 57 58 64 54 75 73 76 78 58 66 66 64 61 57 54 54 53 51 49 48 47 46 44 45
36 36 35 34 35 43 53 64 66 63 54 53 51 48 54 70 71 61 72 66 78 69 62 71 71 65 62 60 60 58 56 54 51 49 48 48 48 49
36 38 38 40 33 31 36 45 49 50 50 52 52 50 54 63 71 71 72 75 60 77 67 63 65 69 68 64 63 62 60 58 56 54 52 52 51 52
33 31 29 32 32 27 32 40 43 45 47 50 53 58 62 67 74 73 70 75 61 49 77 70 72 72 70 66 63 62 60 59 57 56 55 57 56 56
31 29 26 27 21 19 19 26 36 39 36 44 44 48 64 69 71 76 71 79 70 66 65 59 69 72 71 73 69 65 63 62 62 59 60 61 63 62
29 27 26 25 20 17 16 20 26 29 31 35 39 51 62 69 76 71 69 70 73 61 66 61 65 74 69 77 72 69 63 61 61 64 64 64 66 66
29 30 24 22 21 18 16 15 19 24 33 36 42 51 57 66 70 75 72 73 82 78 75 80 61 61 69 74 71 68 67 67 64 63 65 65 66 70
29 27 26 22 20 18 15 14 13 20 38 42 45 50 54 63 67 71 71 75 81 79 77 67 67 67 66 64 67 73 75 72 56 62 64 62 62 68
29 29 27 24 19 17 15 11 11 10 39 42 44 45 52 56 64 71 77 73 75 80 82 79 77 68 65 72 70 72 73 70 65 55 52 59 69 67
25 28 27 26 20 16 14 10 8 6 19 46 47 48 50 52 60 66 73 75 71 71 74 86 81 77 75 77 75 61 64 70 73 71 63 65 62 52
27 25 28 27 25 19 16 12 8 5 4 26 50 49 53 48 56 61 68 68 66 65 63 65 75 81 79 81 84 81 75 73 73 79 73 75 65 61

GFSNE_500_spd_171.txt.gz
Wind_Speed
64 63 63 64 64 64 67 67 64 56 57 54 55 55 53 50 47 49 55 51 44 45 48 59 52 58 49 48 47 46 43 44 44 48 47 45 42 43
69 70 69 67 65 63 63 65 65 65 60 59 56 56 55 52 50 48 55 56 49 47 47 41 56 61 61 56 50 46 51 45 49 44 48 45 43 44
67 67 67 67 66 66 66 67 65 64 62 60 60 55 55 55 53 50 51 56 53 49 46 57 52 71 52 53 59 55 53 48 46 46 42 53 49 45
67 66 63 61 59 63 65 63 65 65 61 58 58 56 55 55 55 51 49 54 54 51 46 44 53 53 58 52 56 47 51 53 47 44 40 42 46 46
73 74 71 67 65 62 60 62 61 61 61 58 58 58 57 55 54 52 50 50 54 53 50 45 56 62 59 59 57 56 56 53 53 45 44 43 43 43
72 71 72 70 66 65 61 57 61 59 59 58 62 62 60 58 56 54 52 50 52 55 54 54 54 69 65 60 58 62 60 50 51 49 45 45 43 44
62 65 68 70 69 67 64 62 59 57 58 58 58 60 62 60 57 58 55 53 50 55 57 55 55 65 65 63 52 63 62 55 59 53 50 46 43 44
60 59 59 59 61 65 66 66 66 60 57 59 59 59 64 62 60 60 60 56 51 53 59 58 61 61 65 69 64 58 63 60 60 54 54 51 44 44
58 56 54 54 55 55 58 61 67 66 62 58 59 61 62 62 62 61 62 57 52 49 56 55 61 62 58 69 60 66 63 62 62 53 53 54 49 46
55 52 50 48 48 48 49 50 54 62 68 66 61 61 63 62 64 64 61 60 53 51 55 58 57 62 62 56 70 69 63 70 55 58 58 54 51 49
50 47 46 46 46 46 44 43 46 51 56 68 69 67 62 63 64 63 63 60 53 54 55 53 57 58 61 62 64 72 65 68 70 68 61 58 54 50
47 46 45 46 46 46 43 42 39 41 47 53 68 75 71 67 63 64 62 60 55 51 54 54 54 60 60 58 65 60 73 62 72 53 56 56 56 55
50 46 43 42 43 45 42 39 39 38 39 45 52 67 80 78 72 65 62 58 56 50 54 57 56 59 62 58 57 61 59 66 63 58 58 58 58 57
55 47 43 39 35 39 38 34 36 38 36 38 42 49 67 83 83 76 73 67 60 57 58 58 57 57 64 59 52 59 56 54 66 63 62 61 62 60
60 50 43 40 32 30 31 31 32 36 36 35 40 44 50 68 81 83 81 73 67 64 62 60 59 58 62 67 61 57 58 58 62 53 63 61 64 62
61 53 43 38 36 30 28 29 32 37 36 34 36 37 45 51 73 81 83 81 74 67 66 63 61 61 59 66 70 61 70 68 69 65 67 67 65 64
62 60 49 35 32 32 30 30 36 35 36 36 39 39 40 43 54 78 77 75 76 70 66 61 61 59 61 63 69 72 74 68 70 70 76 72 66 63
62 61 57 45 31 28 28 31 34 36 34 35 37 38 32 34 40 54 69 71 72 67 63 59 60 60 57 62 65 65 72 67 68 71 72 73 66 64
60 60 59 54 41 29 26 29 31 35 32 33 35 35 21 26 31 44 52 57 59 60 57 56 56 50 57 56 64 66 76 66 64 58 76 71 68 66
57 58 59 57 51 37 27 28 32 33 31 30 31 30 16 21 28 40 47 50 54 56 55 56 54 52 56 56 59 60 65 75 72 71 69 70 71 71
54 56 57 57 55 47 35 28 31 31 31 28 28 27 15 20 29 34 38 44 50 53 59 56 58 61 47 44 59 58 60 68 64 67 73 71 70 69
53 54 55 56 56 52 42 33 30 31 30 28 24 24 16 21 32 36 39 43 47 53 57 55 63 67 55 53 50 62 68 65 55 59 60 70 63 63
53 53 54 55 56 54 48 37 32 31 29 27 22 20 15 21 30 34 39 47 54 57 56 53 48 64 61 54 47 48 58 65 69 67 73 68 66 68